| time (UTC) | temp C | wind direction | speed KPH | gust KPH | rain 1hr cm | rain 24hr cm | rain mn cm | humidity % | barometer mb |
| 20260507103049 | 2 | 140 | 0.0 | 3.2 | 0.00 | 0.00 | 0.00 | 82 | 1013.4 |
| 20260507101558 | 2 | 0 | 3.2 | 9.7 | 0.00 | 0.00 | 0.00 | 80 | 1013.3 |
| 20260507100054 | 3 | 277 | 9.7 | 11.3 | 0.00 | 0.00 | 0.00 | 70 | 1013.4 |
| 20260507094554 | 2 | 108 | 0.0 | 1.6 | 0.00 | 0.00 | 0.00 | 86 | 1013.5 |
| 20260507093051 | 2 | 0 | 0.0 | 1.6 | 0.00 | 0.00 | 0.00 | 86 | 1013.5 |
| 20260507091553 | 2 | 0 | 0.0 | 3.2 | 0.00 | 0.00 | 0.00 | 83 | 1013.5 |
| 20260507090054 | 2 | 92 | 0.0 | 3.2 | 0.00 | 0.00 | 0.00 | 81 | 1013.5 |
| 20260507084550 | 2 | 0 | 0.0 | 0.0 | 0.00 | 0.00 | 0.00 | 82 | 1013.5 |
| 20260507083049 | 2 | 0 | 0.0 | 3.2 | 0.00 | 0.00 | 0.00 | 81 | 1013.5 |
| 20260507081549 | 2 | 111 | 1.6 | 3.2 | 0.00 | 0.00 | 0.00 | 82 | 1013.5 |
| 20260507080047 | 2 | 135 | 0.0 | 3.2 | 0.00 | 0.00 | 0.00 | 80 | 1013.7 |
| 20260507074551 | 2 | 97 | 0.0 | 1.6 | 0.00 | 0.00 | 0.00 | 80 | 1013.7 |
| 20260507073125 | 2 | 118 | 0.0 | 1.6 | 0.00 | 0.00 | 0.00 | 79 | 1013.8 |
| 20260507071551 | 3 | 0 | 0.0 | 3.2 | 0.00 | 0.00 | 0.00 | 79 | 1013.9 |
| 20260507070052 | 3 | 107 | 1.6 | 3.2 | 0.00 | 0.00 | 0.00 | 78 | 1014.0 |
| 20260507064607 | 3 | 0 | 1.6 | 3.2 | 0.00 | 0.00 | 0.00 | 76 | 1014.1 |
| 20260507063056 | 3 | 130 | 1.6 | 4.8 | 0.00 | 0.00 | 0.00 | 76 | 1014.2 |
| 20260507061548 | 5 | 0 | 0.0 | 9.7 | 0.00 | 0.00 | 0.00 | 68 | 1014.4 |
| 20260507060057 | 5 | 261 | 6.4 | 11.3 | 0.00 | 0.00 | 0.00 | 59 | 1014.3 |
| 20260507054549 | 5 | 276 | 8.0 | 11.3 | 0.00 | 0.00 | 0.00 | 56 | 1014.4 |
| 20260507053053 | 5 | 281 | 6.4 | 9.7 | 0.00 | 0.00 | 0.00 | 57 | 1014.5 |
| 20260507051550 | 5 | 265 | 6.4 | 9.7 | 0.00 | 0.00 | 0.00 | 55 | 1014.5 |
| 20260507050055 | 6 | 286 | 6.4 | 9.7 | 0.00 | 0.00 | 0.00 | 56 | 1014.6 |
| 20260507044550 | 6 | 295 | 8.0 | 9.7 | 0.00 | 0.00 | 0.00 | 53 | 1014.7 |
| 20260507043051 | 6 | 288 | 4.8 | 8.0 | 0.00 | 0.00 | 0.00 | 57 | 1014.7 |
| 20260507041549 | 6 | 280 | 4.8 | 8.0 | 0.00 | 0.00 | 0.00 | 55 | 1014.9 |
| 20260507040103 | 6 | 304 | 6.4 | 9.7 | 0.00 | 0.00 | 0.00 | 55 | 1015.0 |
| 20260507034610 | 6 | 295 | 6.4 | 9.7 | 0.00 | 0.00 | 0.00 | 54 | 1015.0 |
| 20260507033103 | 5 | 284 | 6.4 | 9.7 | 0.00 | 0.00 | 0.00 | 56 | 1015.0 |
| 20260507031549 | 6 | 298 | 6.4 | 9.7 | 0.00 | 0.00 | 0.00 | 56 | 1015.1 |
| 20260507030050 | 6 | 303 | 8.0 | 11.3 | 0.00 | 0.00 | 0.00 | 54 | 1015.2 |
| 20260507024556 | 6 | 298 | 8.0 | 12.9 | 0.00 | 0.00 | 0.00 | 56 | 1015.2 |
| 20260507023047 | 6 | 298 | 8.0 | 12.9 | 0.00 | 0.00 | 0.00 | 57 | 1015.2 |
| 20260507021555 | 6 | 305 | 8.0 | 12.9 | 0.00 | 0.00 | 0.00 | 55 | 1015.2 |
| 20260507020052 | 6 | 299 | 11.3 | 14.5 | 0.00 | 0.00 | 0.00 | 52 | 1015.3 |
| 20260507014552 | 6 | 307 | 11.3 | 16.1 | 0.00 | 0.00 | 0.00 | 51 | 1015.2 |
| 20260507013103 | 6 | 302 | 12.9 | 17.7 | 0.00 | 0.00 | 0.00 | 54 | 1015.2 |
| 20260507011550 | 6 | 299 | 16.1 | 20.9 | 0.00 | 0.00 | 0.00 | 51 | 1015.3 |
| 20260507010053 | 6 | 291 | 12.9 | 17.7 | 0.00 | 0.00 | 0.00 | 54 | 1015.3 |
| 20260507004551 | 6 | 301 | 16.1 | 29.0 | 0.00 | 0.00 | 0.00 | 51 | 1015.3 |
| 20260507003051 | 6 | 293 | 17.7 | 25.7 | 0.00 | 0.00 | 0.00 | 56 | 1015.4 |
| 20260507001607 | 7 | 294 | 22.5 | 30.6 | 0.00 | 0.00 | 0.00 | 52 | 1015.4 |
| 20260507000051 | 6 | 267 | 19.3 | 32.2 | 0.00 | 0.00 | 0.00 | 54 | 1015.5 |
| 20260506234557 | 6 | 260 | 20.9 | 29.0 | 0.00 | 0.00 | 0.00 | 53 | 1015.3 |
| 20260506233050 | 6 | 284 | 22.5 | 27.4 | 0.00 | 0.00 | 0.00 | 55 | 1015.5 |
| 20260506231549 | 6 | 281 | 24.1 | 30.6 | 0.00 | 0.00 | 0.00 | 55 | 1015.5 |
| 20260506230054 | 6 | 279 | 17.7 | 30.6 | 0.00 | 0.00 | 0.00 | 51 | 1015.5 |
| 20260506224604 | 6 | 291 | 17.7 | 27.4 | 0.00 | 0.00 | 0.00 | 51 | 1015.6 |
| 20260506223049 | 6 | 281 | 19.3 | 27.4 | 0.00 | 0.00 | 0.00 | 54 | 1015.6 |
| 20260506221550 | 6 | 269 | 19.3 | 24.1 | 0.00 | 0.00 | 0.00 | 54 | 1015.8 |